TimePDT,TemperatureF,Dew PointF,Humidity,Sea Level PressureIn,VisibilityMPH,Wind Direction,Wind SpeedMPH,Gust SpeedMPH,PrecipitationIn,Events,Conditions,WindDirDegrees,DateUTC
12:30 AM,44.6,42.8,93,30.18,1.5,Calm,Calm,-,N/A,,Clear,0,2013-10-17 07:30:00
12:33 AM,44.6,42.8,93,30.18,0.8,Calm,Calm,-,N/A,,Mist,0,2013-10-17 07:33:00
12:43 AM,42.8,42.8,100,30.18,0.2,Calm,Calm,-,N/A,Fog,Fog,0,2013-10-17 07:43:00
12:53 AM,42.1,41.0,96,30.19,0.5,Calm,Calm,-,N/A,Fog,Fog,0,2013-10-17 07:53:00
1:01 AM,42.8,41.0,93,30.19,1.5,Calm,Calm,-,N/A,,Mostly Cloudy,0,2013-10-17 08:01:00
1:06 AM,44.6,42.8,93,30.19,3.0,Calm,Calm,-,N/A,,Mostly Cloudy,0,2013-10-17 08:06:00
1:53 AM,48.9,46.9,93,30.19,6.0,Calm,Calm,-,N/A,,Overcast,0,2013-10-17 08:53:00
2:53 AM,48.0,46.0,93,30.20,5.0,North,3.5,-,N/A,,Overcast,350,2013-10-17 09:53:00
3:53 AM,48.0,46.0,93,30.20,5.0,North,4.6,-,N/A,,Overcast,10,2013-10-17 10:53:00
4:53 AM,46.9,46.0,97,30.20,5.0,NNW,3.5,-,N/A,,Overcast,330,2013-10-17 11:53:00
5:53 AM,48.0,46.0,93,30.22,6.0,Calm,Calm,-,N/A,,Overcast,0,2013-10-17 12:53:00
6:53 AM,48.0,46.0,93,30.22,6.0,Calm,Calm,-,N/A,,Overcast,0,2013-10-17 13:53:00
7:23 AM,48.2,44.6,87,30.22,6.0,Calm,Calm,-,N/A,,Overcast,0,2013-10-17 14:23:00
7:53 AM,46.9,45.0,93,30.23,6.0,Calm,Calm,-,N/A,,Overcast,0,2013-10-17 14:53:00
8:53 AM,48.0,45.0,89,30.24,5.0,North,3.5,-,N/A,,Overcast,360,2013-10-17 15:53:00
9:53 AM,48.0,45.0,89,30.25,8.0,North,3.5,-,N/A,,Overcast,360,2013-10-17 16:53:00
10:53 AM,50.0,45.0,83,30.25,10.0,NE,4.6,-,N/A,,Overcast,50,2013-10-17 17:53:00
11:23 AM,51.8,46.4,82,30.24,10.0,WSW,3.5,-,N/A,,Overcast,240,2013-10-17 18:23:00
11:53 AM,52.0,46.0,80,30.24,10.0,West,5.8,-,N/A,,Scattered Clouds,270,2013-10-17 18:53:00
12:53 PM,55.0,48.0,77,30.21,10.0,West,9.2,-,N/A,,Clear,270,2013-10-17 19:53:00
1:53 PM,57.0,48.9,74,30.20,10.0,West,5.8,-,N/A,,Clear,260,2013-10-17 20:53:00
2:53 PM,61.0,48.9,64,30.18,10.0,West,6.9,-,N/A,,Clear,270,2013-10-17 21:53:00
3:53 PM,64.0,50.0,60,30.17,10.0,WNW,5.8,-,N/A,,Clear,300,2013-10-17 22:53:00
4:53 PM,64.9,50.0,58,30.16,10.0,WNW,4.6,-,N/A,,Clear,300,2013-10-17 23:53:00
5:53 PM,64.0,48.0,56,30.15,10.0,NW,3.5,-,N/A,,Clear,310,2013-10-18 00:53:00
6:53 PM,57.9,46.9,67,30.16,10.0,Calm,Calm,-,N/A,,Clear,0,2013-10-18 01:53:00
7:53 PM,55.9,46.9,72,30.17,10.0,Calm,Calm,-,N/A,,Clear,0,2013-10-18 02:53:00
8:53 PM,52.0,46.0,80,30.18,10.0,Calm,Calm,-,N/A,,Clear,0,2013-10-18 03:53:00
9:53 PM,50.0,46.0,86,30.19,10.0,Calm,Calm,-,N/A,,Clear,0,2013-10-18 04:53:00
10:53 PM,46.0,43.0,89,30.18,9.0,Calm,Calm,-,N/A,,Clear,0,2013-10-18 05:53:00
11:53 PM,42.1,41.0,96,30.18,2.5,Calm,Calm,-,N/A,,Clear,0,2013-10-18 06:53:00